Date String (YYYY-MM-DD hh:mm:ss) UTC,Instrument flags,Ambient pressure (hPa),Sample flow (lpm),Bypass flow (lpm),Sample temperature (°C),Ambient temperature (°C),ASC tube jacket temperature (°C),LED temperature (°C),Box temperature (°C),Sample RH (%),Span deviation,Mass concentration (μg/m³),Mass concentration (μg/m³),Mass concentration (μg/m³)
DateTimeUTC,F1_M11,P_M11,Q1_M11,Q2_M11,T1_M11,T2_M11,T3_M11,T4_M11,T5_M11,U1_M11,ZSPAN_M11,X0_M11,X2_M11,X1_M11
2021-11-05 20:00:00,,0826.5,5.00,0.00,29.9,28.8,00.0,38.8,31.7,06.6,0000.0,0004.62,0001.30,0000.80
2021-11-05 20:01:00,,0826.5,5.00,0.00,29.9,28.9,00.0,38.9,31.7,06.7,0000.0,0004.54,0001.29,0000.81
2021-11-05 20:02:00,,0826.5,5.00,0.00,30.0,29.0,00.0,38.9,31.7,06.7,0000.0,0004.71,0001.26,0000.82
2021-11-05 20:03:00,,0826.5,5.00,0.00,30.0,29.0,00.0,38.9,31.8,06.3,0000.0,0004.59,0001.26,0000.81
2021-11-05 20:04:00,,0826.5,5.00,0.00,30.0,29.1,00.0,38.9,31.9,06.1,0000.0,0004.96,0001.26,0000.80
2021-11-05 20:05:00,,0826.5,5.00,0.00,30.1,29.0,00.0,38.9,31.9,06.3,0000.0,0005.00,0001.25,0000.80
2021-11-05 20:06:00,,0826.5,5.01,0.00,30.0,27.6,00.0,38.9,31.6,06.6,0000.0,0005.08,0001.25,0000.80
2021-11-05 20:07:00,,0826.4,5.00,0.00,29.9,26.7,00.0,38.9,31.4,06.6,0000.0,0005.32,0001.24,0000.81
2021-11-05 20:08:00,,0826.5,5.00,0.00,29.9,26.9,00.0,38.9,31.5,06.8,0000.0,0006.15,0001.25,0000.80
2021-11-05 20:09:00,,0826.5,5.01,0.00,29.8,27.3,00.0,38.9,31.4,06.6,0000.0,0006.69,0001.26,0000.80
2021-11-05 20:10:00,,0826.4,5.00,0.00,29.8,27.6,00.0,38.8,31.4,06.8,0000.0,0007.45,0001.27,0000.80
2021-11-05 20:11:00,,0826.4,4.99,0.00,29.8,27.9,00.0,38.8,31.4,06.6,0000.0,0007.39,0001.24,0000.81
2021-11-05 20:12:00,,0826.3,5.01,0.00,29.8,28.2,00.0,38.8,31.5,06.2,0000.0,0007.18,0001.21,0000.80
2021-11-05 20:13:00,,0826.4,4.98,0.00,29.8,28.4,00.0,38.8,31.5,06.1,0000.0,0005.72,0001.21,0000.80
2021-11-05 20:14:00,,0826.5,5.01,0.00,29.8,28.5,00.0,38.8,31.6,06.4,0000.0,0005.45,0001.25,0000.81
2021-11-05 20:15:00,,0826.5,5.01,0.00,29.9,28.6,00.0,38.8,31.6,06.5,0000.0,0005.10,0001.24,0000.82
2021-11-05 20:16:00,,0826.4,5.00,0.00,29.9,28.7,00.0,38.8,31.6,06.4,0000.0,0004.90,0001.22,0000.82
2021-11-05 20:17:00,,0826.5,5.01,0.00,29.9,28.8,00.0,38.9,31.6,06.5,0000.0,0004.70,0001.19,0000.81
2021-11-05 20:18:00,,0826.5,5.00,0.00,29.9,28.9,00.0,38.9,31.7,06.4,0000.0,0004.39,0001.19,0000.81
2021-11-05 20:19:00,,0826.5,4.99,0.00,30.0,29.0,00.0,38.9,31.7,06.5,0000.0,0003.45,0001.20,0000.81
2021-11-05 20:20:00,,0826.5,5.00,0.00,30.0,29.0,00.0,38.9,31.8,06.4,0000.0,0003.29,0001.20,0000.81
2021-11-05 20:21:00,,0826.4,5.01,0.00,30.0,29.1,00.0,38.9,31.7,06.4,0000.0,0002.98,0001.18,0000.81
2021-11-05 20:22:00,,0826.4,5.00,0.00,30.1,29.1,00.0,38.9,31.8,06.2,0000.0,0003.53,0001.17,0000.81
2021-11-05 20:23:00,,0826.4,5.00,0.00,30.0,27.6,00.0,39.0,31.6,06.1,0000.0,0004.49,0001.23,0000.81
2021-11-05 20:24:00,,0826.2,5.00,0.00,29.9,26.6,00.0,39.0,31.4,06.1,0000.0,0004.55,0001.24,0000.81
2021-11-05 20:25:00,,0826.2,5.01,0.00,29.9,26.8,00.0,38.9,31.4,06.4,0000.0,0004.68,0001.26,0000.81
2021-11-05 20:26:00,,0826.3,4.99,0.00,29.8,27.2,00.0,38.9,31.3,06.1,0000.0,0004.95,0001.31,0000.81
2021-11-05 20:27:00,,0826.5,4.99,0.00,29.8,27.5,00.0,38.8,31.3,06.2,0000.0,0005.16,0001.36,0000.81
2021-11-05 20:28:00,,0826.5,5.00,0.00,29.8,27.9,00.0,38.8,31.4,06.2,0000.0,0005.26,0001.37,0000.81
2021-11-05 20:29:00,,0826.4,5.01,0.00,29.8,28.1,00.0,38.8,31.4,06.5,0000.0,0005.39,0001.39,0000.82
2021-11-05 20:30:00,,0826.4,5.01,0.00,29.8,28.3,00.0,38.8,31.5,06.4,0000.0,0005.43,0001.37,0000.82
2021-11-05 20:31:00,,0826.4,5.01,0.00,29.8,28.5,00.0,38.8,31.5,06.4,0000.0,0005.18,0001.37,0000.81
2021-11-05 20:32:00,,0826.3,5.01,0.00,29.8,28.6,00.0,38.8,31.6,06.4,0000.0,0004.53,0001.36,0000.81
2021-11-05 20:33:00,,0826.2,4.99,0.00,29.9,28.7,00.0,38.8,31.6,06.3,0000.0,0004.10,0001.39,0000.81
2021-11-05 20:34:00,,0826.2,5.00,0.00,29.9,28.8,00.0,38.8,31.6,06.5,0000.0,0003.76,0001.41,0000.82
2021-11-05 20:35:00,,0826.3,5.00,0.00,29.9,28.9,00.0,38.9,31.7,06.3,0000.0,0005.27,0001.41,0000.83
2021-11-05 20:36:00,,0826.2,5.00,0.00,29.9,29.0,00.0,38.9,31.7,06.2,0000.0,0005.30,0001.37,0000.83
2021-11-05 20:37:00,,0826.3,5.00,0.00,30.0,29.0,00.0,38.9,31.7,05.9,0000.0,0005.20,0001.32,0000.83
2021-11-05 20:38:00,,0826.3,4.99,0.00,30.0,29.1,00.0,38.9,31.8,05.8,0000.0,0004.95,0001.26,0000.83
2021-11-05 20:39:00,,0826.2,5.00,0.00,30.0,29.1,00.0,38.9,31.8,06.1,0000.0,0005.13,0001.29,0000.84
2021-11-05 20:40:00,,0826.4,5.00,0.00,30.0,27.7,00.0,38.9,31.5,06.7,0000.0,0006.14,0001.28,0000.83
2021-11-05 20:41:00,,0826.4,5.01,0.00,29.9,25.8,00.0,38.9,31.1,06.8,0000.0,0006.13,0001.31,0000.83
2021-11-05 20:42:00,,0826.4,5.00,0.00,29.8,25.7,00.0,38.9,31.1,07.0,0000.0,0006.04,0001.31,0000.83
2021-11-05 20:43:00,,0826.3,5.01,0.00,29.7,26.2,00.0,38.8,31.1,07.0,0000.0,0006.13,0001.36,0000.85
2021-11-05 20:44:00,,0826.4,5.00,0.00,29.6,26.7,00.0,38.7,31.0,06.7,0000.0,0005.85,0001.34,0000.86
2021-11-05 20:45:00,,0826.4,4.99,0.00,29.6,27.1,00.0,38.7,31.1,06.6,0000.0,0005.56,0001.31,0000.86
2021-11-05 20:46:00,,0826.3,5.00,0.00,29.6,27.5,00.0,38.7,31.2,06.2,0000.0,0003.91,0001.28,0000.86
2021-11-05 20:47:00,,0826.3,5.01,0.00,29.6,27.8,00.0,38.7,31.2,06.1,0000.0,0004.42,0001.25,0000.86
2021-11-05 20:48:00,,0826.3,4.99,0.00,29.6,28.0,00.0,38.7,31.3,06.3,0000.0,0004.21,0001.22,0000.85
2021-11-05 20:49:00,,0826.2,5.00,0.00,29.6,28.2,00.0,38.7,31.3,06.4,0000.0,0004.26,0001.23,0000.85
2021-11-05 20:50:00,,0826.3,5.00,0.00,29.7,28.4,00.0,38.7,31.4,06.5,0000.0,0004.11,0001.22,0000.85
2021-11-05 20:51:00,,0826.3,5.00,0.00,29.7,28.5,00.0,38.7,31.4,06.7,0000.0,0003.11,0001.22,0000.86
2021-11-05 20:52:00,,0826.3,5.00,0.00,29.7,28.6,00.0,38.7,31.5,06.6,0000.0,0003.06,0001.18,0000.86
2021-11-05 20:53:00,,0826.4,5.02,0.00,29.8,28.7,00.0,38.7,31.5,06.6,0000.0,0002.97,0001.16,0000.87
2021-11-05 20:54:00,,0826.3,4.99,0.00,29.8,28.8,00.0,38.7,31.5,06.5,0000.0,0002.90,0001.14,0000.87
2021-11-05 20:55:00,,0826.4,5.00,0.00,29.8,28.8,00.0,38.7,31.6,06.4,0000.0,0002.92,0001.12,0000.85
2021-11-05 20:56:00,,0826.2,5.00,0.00,29.9,28.9,00.0,38.7,31.6,06.5,0000.0,0002.92,0001.10,0000.83
2021-11-05 20:57:00,,0826.2,5.01,0.00,29.9,29.0,00.0,38.8,31.7,06.7,0000.0,0003.54,0001.15,0000.83
2021-11-05 20:58:00,,0826.3,5.00,0.00,29.9,29.0,00.0,38.8,31.7,06.6,0000.0,0003.80,0001.19,0000.84
2021-11-05 20:59:00,,0826.2,5.00,0.00,29.9,29.1,00.0,38.8,31.7,06.5,0000.0,0003.64,0001.23,0000.85
